User: anonymous   Login
Location: Oronoko Observatory
(41.9167°N, 86.3833°W)
Time: 01:54:39
(UTC-05:00)
Language:

PAYLOAD A - Orbit

View from above orbital plane
View from above orbital plane
View from above satellite
View from above satellite

Ground track
Ground track

The orbit data is extracted from the following two-line orbital elements,

1 27840U 03031A   18052.53071106 -.00000002  00000-0  12621-4 0  9996
2 27840  98.2238  44.5084 0099487  87.6216 273.6359 14.38898092769174
Epoch (UTC): 21 February 2018 12:44:13
Eccentricity: 0.0099487
inclination: 98.2238°
perigee height: 691 km
apogee height: 833 km
right ascension of ascending node: 44.5084°
argument of perigee: 87.6216°
revolutions per day: 14.38898092
mean anomaly at epoch: 273.6359°
orbit number at epoch: 76917

The dashed part of the orbit path shows where the satellite is in the earth's shadow,  

DLR